Weather History for Jaffrey, NH

Change the Weather History Date:

Tuesday, November 6, 2012

  Actual Average Record
Temperature  
Mean Temperature 28 °F -  
Max Temperature 37 °F 46 °F 55 °F (2005)
Min Temperature 19 °F 29 °F 19 °F (1998)
Degree Days  
Heating Degree Days 37    
Moisture  
Dew Point 14 °F    
Average Humidity 61    
Maximum Humidity 88    
Minimum Humidity 32    
Precipitation  
Precipitation 0.00 in - - ()
Sea Level Pressure  
Sea Level Pressure 30.21 in    
Wind  
Wind Speed 1 mph (North)    
Max Wind Speed 7 mph    
Max Gust Speed -    
Visibility 10 miles    
Events      
Averages and records for this station are not official NWS values.
T = Trace of Precipitation, MM = Missing Value Source: NWS Daily Summary

Daily Weather History Graph

Daily Weather History Graph

Search for Another Location

Airport:

Trip Planner

Search our weather history database for the weather conditions in past years. The results will help you decide how hot, cold, wet, or windy it might be!

Date:

Astronomy

Nov. 06, 2012 Rise Set
Actual Time 6:29 AM EST 4:33 PM EST
Civil Twilight 5:59 AM EST 5:03 PM EST
Nautical Twilight 5:25 AM EST 5:37 PM EST
Astronomical Twilight 4:52 AM EST 6:10 PM EST
Moon 11:11 PM EST (11/6) 12:18 PM EST (11/6)
Length of Visible Light 11h 04m
Length of Day
10h 04m
Waning Gibbous, 53% of the Moon is Illuminated
Nov 6
Waning Gibbous
Nov 6
Last Quarter
Nov 13
New
Nov 20
First Quarter
Nov 28
Full

Hourly Weather History & Observations

Time (EST) Temp. Windchill Dew Point Humidity Pressure Visibility Wind Dir Wind Speed Gust Speed Precip Events Conditions
12:52 AM 27.0 °F - 12.0 °F 53% 30.16 in 10.0 mi Calm Calm - N/A   Clear
1:52 AM 25.0 °F - 12.9 °F 60% 30.17 in 10.0 mi Calm Calm - N/A   Clear
2:52 AM 21.9 °F - 16.0 °F 78% 30.17 in 10.0 mi Calm Calm - N/A   Clear
3:52 AM 21.9 °F - 16.0 °F 78% 30.18 in 10.0 mi Calm Calm - N/A   Partly Cloudy
4:52 AM 19.9 °F - 16.0 °F 85% 30.19 in 10.0 mi Calm Calm - N/A   Clear
5:52 AM 19.0 °F - 15.1 °F 85% 30.19 in 10.0 mi Calm Calm - N/A   Clear
6:52 AM 19.0 °F - 16.0 °F 88% 30.22 in 10.0 mi Calm Calm - N/A   Clear
7:52 AM 24.1 °F - 18.0 °F 77% 30.23 in 10.0 mi Calm Calm - N/A   Clear
8:52 AM 30.0 °F 23.2 °F 15.1 °F 54% 30.24 in 10.0 mi North 6.9 mph - N/A   Clear
9:52 AM 32.0 °F 28.7 °F 12.9 °F 45% 30.25 in 10.0 mi Variable 3.5 mph - N/A   Clear
10:52 AM 34.0 °F 28.8 °F 12.9 °F 42% 30.24 in 10.0 mi NNE 5.8 mph - N/A   Clear
11:52 AM 35.1 °F 31.0 °F 10.9 °F 37% 30.22 in 10.0 mi Variable 4.6 mph - N/A   Clear
12:52 PM 37.0 °F - 10.9 °F 34% 30.21 in 10.0 mi Calm Calm - N/A   Clear
1:52 PM 37.9 °F - 10.0 °F 32% 30.20 in 10.0 mi Calm Calm - N/A   Clear
2:52 PM 37.9 °F - 10.0 °F 32% 30.20 in 10.0 mi Calm Calm - N/A   Clear
3:52 PM 37.9 °F - 10.9 °F 33% 30.20 in 10.0 mi Calm Calm - N/A   Clear
4:52 PM 30.9 °F - 15.1 °F 52% 30.21 in 10.0 mi Calm Calm - N/A   Clear
5:52 PM 28.0 °F - 16.0 °F 61% 30.23 in 10.0 mi Calm Calm - N/A   Clear
6:52 PM 26.1 °F - 18.0 °F 71% 30.24 in 10.0 mi Calm Calm - N/A   Clear
7:52 PM 24.1 °F - 18.0 °F 77% 30.24 in 10.0 mi Calm Calm - N/A   Clear
8:52 PM 23.0 °F - 15.1 °F 72% 30.24 in 10.0 mi Calm Calm - N/A   Clear
9:52 PM 21.9 °F - 16.0 °F 78% 30.22 in 10.0 mi Calm Calm - N/A   Clear
10:52 PM 21.9 °F - 15.1 °F 75% 30.21 in 10.0 mi Calm Calm - N/A   Clear
11:52 PM 21.9 °F - 15.1 °F 75% 30.21 in 10.0 mi Calm Calm - N/A   Clear